This demonstration page uses our WeatherBlox Daily Observations layout. Learn more.

41.55636, -103.73856

Hourly Observations for August 1, 2015

Temp ( °F °C ) Dew Point ( °F °C ) Humidity (%) Winds ( mph kmh ) Pressure ( in mb ) Visibility ( mi km ) Precip ( " mm )
12:53 am 00:53 Clear 65 18.3 56 13.3 73 73 E 8 13 29.99 1016 10 16.0934 0 0
1:53 am 01:53 Clear 65 18.3 55 12.8 70 70 E 7 11 29.97 1015 10 16.0934 0 0
2:53 am 02:53 Clear 65 18.3 55 12.8 70 70 E 9 15 29.96 1015 10 16.0934 0 0
3:53 am 03:53 Clear 64 17.8 55 12.8 73 73 E 8 13 29.95 1014 10 16.0934 0 0
4:53 am 04:53 Clear 64 17.8 55 12.8 73 73 ENE 5 7 29.94 1014 10 16.0934 0 0
5:53 am 05:53 Sunny 63 17.2 56 13.3 78 78 ENE 7 11 29.94 1014 10 16.0934 0 0
6:53 am 06:53 Sunny 67 19.4 59 15 76 76 NNE 3 6 29.94 1014 10 16.0934 0 0
7:53 am 07:53 Sunny 74 23.3 58 14.4 57 57 Calm 29.95 1014 10 16.0934 0 0
8:53 am 08:53 Sunny 78 25.6 58 14.4 50 50 WNW 5 7 29.95 1014 10 16.0934 0 0
9:53 am 09:53 Sunny 80 26.7 59 15 49 49 VRB 3 6 29.95 1014 10 16.0934 0 0
10:53 am 10:53 Sunny 84 28.9 57 13.9 40 40 W 7 11 29.93 1014 10 16.0934 0 0
11:53 am 11:53 Sunny 88 31.1 57 13.9 35 35 VRB 5 7 29.91 1013 10 16.0934 0 0
12:53 pm 12:53 Sunny 90 32.2 56 13.3 32 32 S 5 7 29.88 1012 10 16.0934 0 0
1:53 pm 13:53 Sunny 93 33.9 55 12.8 28 28 VRB 5 7 29.85 1011 10 16.0934 0 0
2:53 pm 14:53 Sunny 95 35 58 14.4 29 29 NE 9 15 29.83 1010 10 16.0934 0 0
3:46 pm 15:46 Sunny with Nearby Thunderstorms 93 33.9 57 13.9 30 30 NE 9 15 29.59 1002 10 16.0934 0 0
3:53 pm 15:53 Sunny with Nearby Thunderstorms 94 34.4 56 13.3 28 28 NNE 14 22 29.82 1010 10 16.0934 0 0
4:01 pm 16:01 Sunny 94 34.4 49 9.4 21 21 NNE 13 20 29.59 1002 10 16.0934 0 0
4:53 pm 16:53 Partly Cloudy 93 33.9 51 10.6 24 24 NNE 9 15 29.81 1009 10 16.0934 0 0
5:53 pm 17:53 Sunny 90 32 46 8 22 22 Calm 29.8 1009 10 16.0934 0 0
6:53 pm 18:53 Sunny 79 26.1 57 13.9 47 47 ESE 15 24 29.85 1011 10 16.0934 0 0
7:53 pm 19:53 Sunny 76 24.4 56 13.3 50 50 ESE 13 20 29.86 1011 10 16.0934 0 0
8:53 pm 20:53 Clear 71 21.7 58 14.4 63 63 undefined N/A 29.88 1012 10 16.0934 0 0
9:53 pm 21:53 Clear 67 19.4 59 15 76 76 E 5 7 29.9 1013 10 16.0934 0 0
10:53 pm 22:53 Clear 67 19.4 57 13.9 71 71 E 6 9 29.88 1012 10 16.0934 0 0
11:53 pm 23:53 Clear 71 21.7 55 12.8 57 57 SE 8 13 29.86 1011 10 16.0934 0 0

Powered by AerisWeather